STARLINK-3778, 52276

Orbit data source: Space-Track

STARLINK-3778, 52276 is a payload satellite owned by SpaceX/Seattle (US) in LEO that was launched on Thu, 21 Apr 2022 UTC via an FALCON 9 launch vehicle from the Air Force Eastern Test Range (AFETR). Payload-class satellites include a variety of spacecraft equipped with specific instruments for various scientific and technological missions. These include communications satellites like Starlink; space stations such as the ISS; scientific satellites like the Hubble; Earth observation satellites from companies like Planet Labs, Umbra, and HawkEye 360; GPS; miniature CubeSats for education and research; and military/defense satellites.

Loading next visibility...
Identifier
52276, 2022-041R
Orbit
LEO
Country
Flag of USUS
Related business
Manufacturer
SpaceX/Seattle
Mission
Operational Commercial Communications
Bus & Motor
STARLINK, Unknown motor
Mass
297 kg wet, ~275 kg dry
Launch date (UTC)
2022-04-21 (4 years ago)
Launch vehicle
FALCON 9
Launch site
Air Force Eastern Test Range (AFETR)
Object type
Payload
Rocket body
Debris
Shape & HBR
Box + 1 Pan, 10.1 m
Radar Cross Section
11.087 m², Large (>1 m²)

Expand to show TLE details & history
Last TLE update: 16 hours ago

TLE from 16 hours ago
0 STARLINK-3778
1 52276U 22041R   26129.87727558  .00000097  00000-0  24184-4 0  9999
2 52276  53.2173 194.4373 0001210  90.6844 269.4287 15.08838845223602
Epoch: 2026-05-09T21:03Z
TLE epoch observation values (Epoch: 2026-05-09T21:03:16.610Z)
Latitude
0.00001°
Longitude
10.92969°
Altitude
540.653 km
Speed
7.593 km/s
True Right ascension
12h 57m 44s
True Declination
0° 00' 00"
Sunlit
Object was in full shadow at epoch
Visualization orbit readout
Latitude
Unknown
Longitude
Unknown
Altitude
Unknown
Speed
Unknown
Apparent Right ascension
Unknown
Apparent Declination
Unknown
Sunlit
N/A
Visualization observer readout
Local Sidereal Time
21:22:06
Azimuth
Unknown
Elevation
Unknown
Doppler factor
Unknown
Orbital elements
Apogee altitude
540.829 km
Perigee altitude
539.155 km
Semi-major axis
6,918.129 km
Eccentricity
0.00012
Inclination
53.2173°
RAAN
194.4373°
Arg. of periapsis
90.6844°
True anomaly
269.41484°
Mean anomaly
269.4287°
Eccentric anomaly
269.42177°
Mean motion
3.7719 °/min
Orbital period
95.44 mins
BSTAR
0.000024184
Loading maneuver chart data...
Computing Atmospheric mass density...
Loading historical data...
Loading historical data...
Loading historical data...
Loading historical data...
Loading historical data...
Loading historical data...
Loading historical data...

Documentation

Showing up to 5 results
|